Regional Weather Roundup
Issued by NWS Mt. Holly, NJ

Home | Current Version | Previous Version | Text Only | Print | Product List | Glossary On
Versions: 1 2 3 4 5 6 7 8 9 10 11 12 13 14 15 16 17 18 19 20 21 22 23 24 25 26 27 28 29 30 31 32 33 34 35 36 37 38 39 40 41 42 43 44 45 46 47 48 49 50
000
ASUS41 KPHI 050312
RWRPHI

REGIONAL WEATHER ROUNDUP
NATIONAL WEATHER SERVICE MOUNT HOLLY NJ
1000 PM EST WED MAR 04 2015

NOTE:  "FAIR" INDICATES FEW OR NO CLOUDS BELOW 12,000 FEET WITH NO
SIGNIFICANT WEATHER AND/OR OBSTRUCTIONS TO VISIBILITY.

 * = STATION DOES NOT REPORT PRECIPITATION (E.G. RAIN, SNOW, ETC.)
        OR FOG.

NJZ015>026-050400-
SOUTHERN NEW JERSEY

CITY           SKY/WX    TMP DP  RH WIND       PRES   REMARKS
POMONA         LGT RAIN  42  41  96 N5        29.93R VSB 1/8
RIO GRANDE*    CLOUDY    43  39  87 NE3       29.92F
MILLVILLE      LGT RAIN N/A N/A N/A N7        29.92S VSB 1
WRIGHTSTOWN    LGT RAIN  41  41 100 W5        29.91R FOG
MOUNT HOLLY    LGT RAIN  38  38 100 CALM      29.94S VSB 1/2
TRENTON        LGT RAIN  41  39  93 W5        29.92S FOG

$$
NJZ001>014-050400-
NORTHERN NEW JERSEY

CITY           SKY/WX    TMP DP  RH WIND       PRES   REMARKS
SUSSEX         CLOUDY    38  35  89 SW3       29.89S
ANDOVER*         N/A     37  36  96 S3        29.90R
MORRISTOWN     LGT RAIN  39  37  93 SW3       29.91S VSB 1
NEWARK         LGT RAIN  39  38  96 SW5       29.91S FOG
TETERBORO      RAIN      40  38  93 S8        29.90R FOG     WCI  34
CALDWELL       LGT RAIN  40  37  89 CALM      29.91S FOG
SOMERVILLE     LGT RAIN  39  36  89 CALM      29.90S VSB 1/2
ALLAIRE*       CLOUDY    41  37  87 W5        29.93S
TOMS RIVER*    CLOUDY    45  39  81 CALM      29.94S VSB 1

$$
PAZ043-044-047-054-055-060>062-066>071-050400-
EASTERN PENNSYLVANIA

CITY           SKY/WX    TMP DP  RH WIND       PRES   REMARKS
PHILADELPHIA   LGT RAIN  42  41  96 CALM      29.94F FOG
NORTH PHILA    LGT RAIN  43  39  87 SW3       29.95S FOG
DOYLESTOWN     LGT RAIN  38  38 100 W3        29.92S
QUAKERTOWN*    CLOUDY    37  37 100 W3        29.92S
POTTSTOWN      LGT RAIN  37  37 100 CALM      29.94S VSB 1/4
LANCASTER      LGT RAIN  36  35  96 W5        29.95R VSB 1/4 WCI  32
READING        LGT RAIN  38  35  89 W8        29.95R WCI  32
ALLENTOWN      LGT RAIN  37  34  89 SW5       29.92R FOG     WCI  33
MOUNT POCONO   CLOUDY    34  30  85 W13       29.84R WCI  25
HAZLETON       FLURRIES  36  32  87 W8        29.92R WCI  29
WILKES BARRE   LGT RAIN  38  32  79 SW8       29.90R WCI  32

$$
DEZALL-MDZ008-012-015-019-020-050400-
DELAWARE AND EASTERN MARYLAND

CITY           SKY/WX    TMP DP  RH WIND       PRES   REMARKS
WILMINGTON     LGT RAIN  40  40 100 CALM      29.94F VSB 1/2
DOVER          LGT RAIN  41  41 100 N5        29.93R FOG
GEORGETOWN     CLOUDY    43  43 100 NE6       29.89F FOG
EASTON         RAIN      44  44 100 N3        29.95F
PATUXENT       FOG       44  43  96 N3        29.89S VSB 1/2
OCEAN CITY     FOG       42  42 100 CALM      29.91R VSB 1/4
WALLOPS ISLAND FOG       45  45 100 CALM      29.90F VSB 1/4
SALISBURY      FOG       48  45  89 CALM      29.88F VSB 1/2

$$
PAZ001-021-NYZ056-072-MDZ011-DCZ001-050400-
OTHER NEARBY LOCATIONS

CITY           SKY/WX    TMP DP  RH WIND       PRES   REMARKS
WILLIAMSPORT   CLOUDY    37  30  75 W9        29.93R WCI  30
BINGHAMTON     CLOUDY    29  21  72 NW13      29.88S WCI  19
NEW YORK CITY  LGT RAIN  42  38  85 SW7       29.92S FOG
BALTIMORE      LGT RAIN  43  41  93 N3        29.94R FOG
WASHINGTON DC  LGT RAIN  46  42  86 N6        29.95R FOG

$$



USA.gov is the U.S. government's official web portal to all federal, state and local government web resources and services.